This is the latest recevied weather packets stored in our database for station/object SQ9IDT-13. If no packets are shown the sender has not sent any weather packets the latest 10 day(s).
| Time | Temp. | Humidity | Pressure | Rain* | Wind** | Luminosity | Snow |
|---|---|---|---|---|---|---|---|
| 1777460808 | 15° C | 30% | 993.1 hPa | - | - | - | - |
| 1777457207 | 13.33° C | 34% | 993.2 hPa | - | - | - | - |
| 1777453613 | 12.22° C | 37% | 993.2 hPa | - | - | - | - |
| 1777450013 | 11.67° C | 38% | 993.2 hPa | - | - | - | - |
| 1777446410 | 12.22° C | 43% | 992.6 hPa | - | - | - | - |
| 1777442809 | 10.56° C | 45% | 992 hPa | - | - | - | - |
| 1777439207 | 3.89° C | 43% | 991.8 hPa | - | - | - | - |
| 1777435606 | 0° C | 42% | 991.3 hPa | - | - | - | - |
| 1777432014 | -1.67° C | 42% | 991.4 hPa | - | - | - | - |
| 1777428412 | -0.56° C | 41% | 991.5 hPa | - | - | - | - |
| 1777424810 | -0.56° C | 40% | 991 hPa | - | - | - | - |
| 1777421208 | 0° C | 39% | 991.1 hPa | - | - | - | - |
| 1777417607 | 0.56° C | 38% | 991.2 hPa | - | - | - | - |
| 1777414452 | 1.67° C | 37% | 991.3 hPa | - | - | - | - |
| 1777414347 | 1.67° C | 37% | 991.3 hPa | - | - | - | - |
| 1777414005 | 1.67° C | 37% | 991.3 hPa | - | - | - | - |
| 1777410412 | 2.78° C | 36% | 991.3 hPa | - | - | - | - |
| 1777406810 | 4.44° C | 34% | 991 hPa | - | - | - | - |
| 1777403209 | 6.67° C | 32% | 990.7 hPa | - | - | - | - |
| 1777399607 | 8.33° C | 31% | 990.1 hPa | - | - | - | - |
| 1777396005 | 11.67° C | 29% | 989.5 hPa | - | - | - | - |
| 1777392404 | 16.11° C | 28% | 989.4 hPa | - | - | - | - |
| 1777388812 | 13.33° C | 29% | 989.5 hPa | - | - | - | - |
| 1777385209 | 15° C | 29% | 989.6 hPa | - | - | - | - |
| 1777381608 | 18.33° C | 28% | 989.8 hPa | - | - | - | - |
* Rain since midnight (hover to see other rain measurements)
** Current wind speed in m/s (hover to see current wind gust speed)